SCP
0 0 0 0 0 0 0 0 0 0 0 0 0 0 0 0 0 0 0 0 0 0 0 0 0 0 0 0 0 0 0 0 0 0 0 0 0 0
0 0 0 0 0 0 0 0 0 0 0 0 0 0 0 0 0 0 0 0 0 0 0 0 0 0 0 0 0 0 0 0 0 0 0 0 0 0
0 0 0 0 0 0 0 0 0 0 0 0 0 0 0 0 0 0 0 0 0 0 0 0 0 0 0 0 0 0 0 0 0 0 0 0 0 0
0 0 0 0 0 0 0 0 0 0 0 0 0 0 0 0 0 0 0 0 0 0 0 0 0 0 0 0 0 0 0 0 0 0 0 0 0 0
0 0 0 0 0 0 0 0 0 0 0 0 0 0 0 0 0 0 0 0 0 0 0 0 0 0 0 0 0 0 0 0 0 0 0 0 0 0
0 0 0 0 0 0 0 0 0 0 0 0 0 0 0 0 0 0 0 0 0 0 0 0 0 0 0 0 0 0 0 0 0 0 0 0 0 0
0 0 0 0 0 0 0 0 0 0 0 0 0 0 0 0 0 0 0 0 0 0 0 0 0 0 0 0 0 0 0 0 0 0 0 0 0 0
0 0 0 0 0 0 0 0 0 0 0 0 0 0 0 0 0 0 0 0 0 0 0 0 0 0 0 0 0 0 0 0 0 0 0 0 0 0
0 0 0 0 0 0 0 0 0 0 0 0 0 0 0 0 0 0 0 0 0 0 0 0 0 0 0 0 0 0 0 0 0 0 0 0 0 0
0 0 0 0 0 0 0 0 0 0 0 0 0 0 0 0 0 0 0 0 0 0 0 0 0 0 0 0 0 0 0 0 0 0 0 0 0 0
0 0 0 0 0 0 0 0 0 0 0 0 0 0 0 0 0 0 0 0 0 0 0 0 0 0 0 0 0 0 0 0 0 0 0 0 0 0
0 0 0 0 0 0 0 0 0 0 0 0 0 0 0 0 0 0 0 0 0 0 0 0 0 0 0 0 0 0 0 0 0 0 0 0 0 0
0 0 0 0 0 0 0 0 0 0 0 0 0 0 0 0 0 0 0 0 0 0 0 0 0 0 0 0 0 0 0 0 0 0 0 0 0 0
0 0 0 0 0 0 0 0 0 0 0 0 0 0 0 0 0 0 0 0 0 0 0 0 0 0 0 0 0 0 0 0 0 0 0 0 0 0
0 0 0 0 0 -0 0 0 0 0 0 0 0 0 0 0 0 0 0 0 0 0 0 0 0 0 0 0 0 0 0 0 0 0 0 0 0 0
0 -0 -0 0 0 0 0 0 0 0 0 0 0 0 0 0 0 0 0 0 0 0 0 0 0 0 0 0 0 0 0 0 0 0 0 0 0 0
0 0 0 0 0 0 0 0 0 0 0 0 0 0 0 0 0 0 0 0 0 0 0 0 0 0 0 0 0 0 0 0 0 0 0 0 0 0
0 0 0 0 0 0 0 0 0 0 0 0 0 0 0 0 0 0 0 0 0 0 0 0 0 0 0 0 0 0 0 0 0 0 0 0 0 0
0 0 0 0 0 0 0 0 0 0 0 0 0 0 0 0 0 0 0 0 0 0 0 0 0 0 0 0 0 0 0 0 0 0 0 0 0 0
0 0 0 0 0 0 0 0 0 0 0 0 0 0 0 0 0 0 0 0 0 0 0 0 0 0 0 0 0 0 0 0 0 0 0 0 0 0
0 0 0 0 0 0 0 0 0 0 0 0 0 0 0 0 0 0 0 0 0 0 0 0 0 0 0 0 0 0 0 0 0 0 0 0 0 0
0 0 0 0 0 0 0 0 0 0 0 0 0 0 0 0 0 0 0 0 0 0 0 0 0 0 0 0 0 0 0 0 0 0 0 0 0 0
0 0 0 0 0 0 0 0 0 0 0 0 0 0 0 0 0 0 0 0 0 0 0 0 0 0 0 0 0 0 0 0 0 0 0 0 0 0
Wind_Speed
2 1 1 1 1 2 2 2 2 2 2 3 2 2 2 2 4 4 5 8 11 13 14 14 14 15 16 16 17 17 16 16 15 15 16 16 16 16
2 2 2 2 2 2 2 2 3 3 3 2 2 2 2 3 4 4 5 9 11 12 13 14 15 15 15 16 16 16 16 15 15 15 16 15 15 15
2 2 3 3 2 2 1 2 2 3 4 3 2 2 2 3 3 3 4 5 5 11 13 14 15 15 15 16 16 16 16 16 16 16 17 16 16 16
3 3 3 3 2 2 2 2 3 3 4 4 3 2 3 4 4 4 4 4 4 8 11 13 14 14 15 15 16 16 16 16 16 16 17 18 18 17
3 3 3 3 3 2 2 3 3 3 3 3 3 2 2 2 3 3 3 3 4 6 9 11 12 13 15 15 16 16 16 16 17 17 17 18 17 18
3 3 4 3 4 4 3 3 3 3 3 3 4 3 3 2 2 3 3 3 3 4 5 6 9 12 14 15 16 16 16 16 16 17 17 17 17 18
4 4 4 5 6 4 3 3 3 3 3 3 4 3 3 2 3 2 3 3 4 3 3 4 5 5 7 11 14 15 16 16 17 17 17 17 17 18
4 4 4 5 6 6 6 6 5 4 4 4 4 4 5 4 3 3 3 3 3 2 3 4 4 5 5 6 10 14 15 16 17 17 18 18 18 19
3 4 4 4 5 4 6 7 6 7 7 5 6 6 5 4 4 4 4 4 5 3 3 4 4 6 5 6 12 14 15 16 16 17 18 19 19 19
4 4 4 4 4 4 3 4 5 5 6 5 6 6 6 5 5 6 5 5 4 3 3 4 3 4 4 5 10 13 14 15 16 17 18 18 19 19
4 4 4 4 8 7 4 5 6 5 6 7 9 9 11 11 8 4 4 4 4 3 4 4 3 2 3 4 7 11 13 14 15 16 17 17 17 17
3 3 5 6 8 7 4 4 6 6 5 6 6 7 7 7 8 6 5 5 4 3 4 4 3 2 3 3 3 5 7 10 13 14 15 16 16 12
3 3 3 7 8 8 6 4 7 7 5 5 5 5 4 4 4 5 5 5 5 5 3 3 3 3 3 2 2 3 5 5 6 8 11 14 15 13
4 3 4 7 8 9 6 7 9 7 3 4 4 4 4 4 3 4 5 6 6 6 5 5 4 4 4 3 3 2 3 4 5 5 6 9 12 15
3 4 5 6 7 6 7 9 6 3 3 3 4 4 3 4 3 3 3 4 4 5 5 6 5 4 4 4 3 3 2 3 5 5 6 6 7 7
1 2 4 5 4 5 6 5 3 2 3 3 4 4 3 3 3 2 2 2 3 3 4 5 6 6 5 5 5 5 4 4 4 5 5 5 5 6
1 2 2 3 4 4 4 4 3 3 3 3 3 4 3 3 3 2 2 2 3 3 3 2 3 4 6 5 5 6 5 4 4 5 6 6 6 7
4 3 3 3 3 4 4 4 4 4 3 3 4 4 4 4 4 3 3 3 4 4 4 3 2 3 3 5 8 7 6 5 5 5 6 6 7 6
5 4 3 4 4 4 4 4 4 5 4 4 4 4 4 4 4 4 4 4 5 5 4 3 3 4 6 6 5 9 7 5 5 5 6 6 7 6
5 4 4 4 4 4 4 4 4 5 5 5 5 5 5 5 5 5 5 5 5 5 5 4 5 6 7 6 4 4 10 8 6 6 5 4 3 2
4 4 4 4 4 4 5 5 5 5 5 5 5 6 6 6 6 6 5 6 6 5 6 6 5 7 4 3 4 4 4 9 8 6 6 5 4 4
4 4 4 4 4 4 4 4 5 5 5 5 6 6 6 6 7 8 7 6 5 5 7 6 4 3 4 5 7 6 4 4 6 7 8 8 6 7
3 3 3 3 3 3 3 4 5 4 5 5 5 6 6 6 6 6 7 7 7 7 6 5 4 4 5 6 6 6 6 5 4 4 5 5 7 5
Wind_Direction
310 309 291 276 261 235 219 201 192 232 262 261 265 269 248 234 231 227 230 233 228 225 223 221 222 221 220 219 217 216 216 216 214 210 208 210 211 209
306 317 310 290 285 258 234 225 211 208 241 254 250 267 265 260 237 233 235 239 234 228 225 223 222 222 220 219 217 214 213 212 210 209 207 208 208 206
328 320 310 301 291 283 260 237 229 219 243 261 249 258 260 261 263 246 242 235 237 232 229 226 224 222 220 218 215 213 211 210 209 208 207 208 207 204
319 320 311 313 300 286 271 255 243 230 232 256 261 255 251 255 255 254 250 241 235 237 232 230 227 223 220 218 215 213 210 208 207 206 207 208 207 206
299 298 297 301 291 282 274 265 258 250 232 243 259 248 254 252 256 257 249 247 245 240 234 231 230 227 222 218 215 213 210 207 206 206 206 207 206 206
290 283 282 274 269 272 272 266 257 253 243 244 255 255 251 251 239 249 258 242 250 248 239 233 230 228 223 218 215 213 211 209 207 207 206 205 204 204
297 290 283 284 277 267 260 258 253 250 251 247 251 255 254 244 242 237 251 262 255 233 235 231 225 226 219 219 217 215 212 210 208 207 207 206 205 204
290 296 296 297 309 311 308 295 274 258 253 251 253 251 255 245 242 242 245 252 261 228 219 236 212 227 222 215 213 212 213 212 209 208 208 206 205 205
273 287 300 304 314 300 303 308 301 289 271 256 256 255 252 239 236 244 238 240 245 231 215 241 217 231 224 221 213 210 211 213 212 210 209 207 206 205
265 267 275 292 295 292 287 294 288 282 273 263 251 255 251 246 235 242 250 255 260 241 208 238 223 229 227 221 216 212 210 212 212 212 211 209 206 204
271 265 263 277 295 302 294 292 293 287 276 270 268 269 268 261 247 241 239 241 255 239 203 220 224 228 230 227 219 214 214 214 214 214 213 210 205 204
281 275 271 275 291 301 283 282 291 290 293 298 293 286 276 268 255 235 233 239 243 244 208 203 212 199 247 235 218 213 217 220 217 215 212 209 202 203
272 278 277 290 297 302 297 270 274 285 286 284 287 286 280 263 251 237 229 231 235 240 209 194 211 202 217 243 238 219 215 217 217 218 213 208 202 201
248 260 276 297 304 307 302 292 295 297 285 285 285 285 282 274 261 246 239 236 237 242 226 206 217 209 215 230 241 231 218 214 214 218 212 204 205 206
238 259 287 308 318 317 314 316 317 305 293 289 289 286 277 273 274 264 246 239 244 244 235 228 226 222 225 230 230 223 228 224 214 215 209 205 204 201
275 324 338 343 340 320 322 327 324 298 290 287 291 288 287 284 284 276 264 258 259 256 235 227 227 227 236 234 233 236 222 219 212 212 212 214 208 204
94 49 26 7 360 353 343 334 329 329 318 300 296 297 300 296 289 276 262 259 259 268 269 240 228 232 237 230 234 234 229 228 221 213 212 220 218 211
88 57 29 12 357 346 341 337 334 335 325 314 309 304 304 302 298 286 263 261 265 263 262 254 238 246 242 240 224 230 228 228 220 211 211 221 224 214
62 49 30 10 359 351 344 339 336 334 331 328 323 319 315 310 303 298 289 280 274 269 261 244 233 243 255 258 234 209 215 218 211 214 217 220 227 217
46 39 23 8 359 353 349 347 344 347 349 345 340 336 330 322 315 308 301 293 288 282 273 253 237 235 243 255 252 225 209 210 211 216 213 214 228 214
37 30 19 10 4 359 356 355 356 355 351 347 346 341 337 332 323 316 309 299 288 283 277 270 256 239 241 240 250 246 224 214 212 208 196 195 201 200
32 24 12 8 5 3 1 0 0 358 355 352 344 338 334 329 325 322 317 311 301 291 283 279 269 241 226 237 250 252 239 219 222 222 210 197 191 199
14 11 3 358 358 357 357 357 357 353 349 345 340 335 333 330 324 319 317 314 309 302 297 291 277 253 248 245 249 249 241 226 209 210 226 229 222 220